TimeEDT,TemperatureF,Dew PointF,Humidity,Sea Level PressureIn,VisibilityMPH,Wind Direction,Wind SpeedMPH,Gust SpeedMPH,PrecipitationIn,Events,Conditions,WindDirDegrees,DateUTC
12:55 AM,60.3,55.2,83,29.76,10.0,WNW,12.7,-,N/A,,Overcast,300,2012-10-29 04:55:00
1:17 AM,60.8,55.4,82,29.76,10.0,NW,16.1,-,N/A,,Overcast,320,2012-10-29 05:17:00
1:47 AM,59.0,53.6,82,29.76,10.0,NW,16.1,-,N/A,,Overcast,310,2012-10-29 05:47:00
1:55 AM,58.5,52.7,81,29.76,10.0,WNW,15.0,-,N/A,,Overcast,300,2012-10-29 05:55:00
2:55 AM,57.6,52.2,82,29.76,10.0,WNW,12.7,21.9,N/A,,Overcast,290,2012-10-29 06:55:00
3:24 AM,57.2,51.8,82,29.76,10.0,WNW,11.5,19.6,N/A,,Overcast,300,2012-10-29 07:24:00
3:55 AM,57.4,49.1,74,29.76,10.0,WNW,16.1,25.3,N/A,,Overcast,300,2012-10-29 07:55:00
4:55 AM,56.3,46.8,70,29.76,10.0,NW,15.0,-,N/A,,Mostly Cloudy,320,2012-10-29 08:55:00
5:05 AM,55.4,46.4,72,29.76,10.0,NW,15.0,-,N/A,,Scattered Clouds,310,2012-10-29 09:05:00
5:55 AM,55.0,46.2,72,29.76,10.0,NW,13.8,20.7,N/A,,Clear,320,2012-10-29 09:55:00
6:55 AM,54.3,44.8,70,29.78,10.0,NW,18.4,28.8,N/A,,Partly Cloudy,320,2012-10-29 10:55:00
7:55 AM,52.7,44.4,73,29.80,10.0,NW,12.7,-,N/A,,Clear,310,2012-10-29 11:55:00
8:55 AM,53.4,44.1,71,29.83,10.0,WNW,16.1,23.0,N/A,,Clear,300,2012-10-29 12:55:00
9:55 AM,55.0,43.7,66,29.83,10.0,NW,12.7,-,N/A,,Clear,310,2012-10-29 13:55:00
10:55 AM,57.9,44.6,61,29.84,10.0,WNW,12.7,-,N/A,,Clear,300,2012-10-29 14:55:00
11:55 AM,60.8,43.9,54,29.82,10.0,WNW,13.8,21.9,N/A,,Clear,300,2012-10-29 15:55:00
12:55 PM,63.0,42.3,47,29.80,10.0,NW,16.1,21.9,N/A,,Clear,320,2012-10-29 16:55:00
1:55 PM,65.3,42.1,43,29.76,10.0,West,15.0,-,N/A,,Clear,270,2012-10-29 17:55:00
2:55 PM,66.9,38.1,35,29.75,10.0,WNW,12.7,21.9,N/A,,Clear,290,2012-10-29 18:55:00
3:55 PM,67.1,36.9,33,29.73,10.0,West,16.1,-,N/A,,Clear,270,2012-10-29 19:55:00
4:55 PM,67.3,35.8,31,29.72,10.0,WNW,15.0,20.7,N/A,,Clear,300,2012-10-29 20:55:00
5:55 PM,65.3,36.7,35,29.72,10.0,WNW,9.2,-,N/A,,Clear,290,2012-10-29 21:55:00
6:55 PM,59.9,38.7,45,29.73,10.0,West,6.9,-,N/A,,Clear,280,2012-10-29 22:55:00
7:55 PM,59.2,41.5,52,29.75,10.0,West,11.5,-,N/A,,Clear,270,2012-10-29 23:55:00
8:55 PM,56.8,43.5,61,29.78,10.0,West,13.8,-,N/A,,Clear,280,2012-10-30 00:55:00
9:55 PM,56.7,42.6,59,29.80,10.0,WNW,11.5,-,N/A,,Clear,290,2012-10-30 01:55:00
10:55 PM,55.6,41.5,59,29.82,10.0,WNW,11.5,-,N/A,,Clear,300,2012-10-30 02:55:00
11:55 PM,54.9,40.1,58,29.82,10.0,NW,11.5,-,N/A,,Clear,310,2012-10-30 03:55:00